contact:dominique.lefevre@mio.osupytheas.fr, maurice.libes@osupytheas.fr, didier.mallarino@osupytheas.fr
Project:EMSO http://www.emso-fr.org/EMSO-France
Depth: 2436.0 m
Title:EMSO Ligure Ouest : Data MII capteur CSTAR
DateTime,Latitude,Longitude,Instrument_Serial,Reference_Counts,Signal_Counts,Corrected_Signal_raw_counts,Calculated_Beam_c_inverse_meters,Internal_thermistor_counts
DateTime,Latitude,Longitude,Instrument_Serial,Reference_Counts,Signal_Counts,Corrected_Signal_raw_counts,Calculated_Beam_c_inverse_meters,Internal_thermistor_counts
2023-03-13T00:01:44,42.805,6.029,CST-1368DR,4355,4712,11493,01.226,551
2023-03-13T00:04:46,42.805,6.029,CST-1368DR,4355,4716,11503,01.223,551
2023-03-13T00:07:48,42.805,6.029,CST-1368DR,4355,4709,11486,01.229,551
2023-03-13T00:10:49,42.805,6.029,CST-1368DR,4355,4712,11493,01.226,551
2023-03-13T00:13:51,42.805,6.029,CST-1368DR,4355,4722,11517,01.218,551
2023-03-13T00:16:52,42.805,6.029,CST-1368DR,4355,4710,11488,01.228,551
2023-03-13T00:19:54,42.805,6.029,CST-1368DR,4355,4712,11494,01.226,551
2023-03-13T00:22:55,42.805,6.029,CST-1368DR,4355,4712,11492,01.227,551
2023-03-13T00:25:57,42.805,6.029,CST-1368DR,4355,4711,11489,01.228,551
2023-03-13T00:28:59,42.805,6.029,CST-1368DR,4355,4710,11489,01.228,551
2023-03-13T00:32:00,42.805,6.029,CST-1368DR,4355,4712,11492,01.227,551
2023-03-13T00:35:02,42.805,6.029,CST-1368DR,4355,4712,11493,01.226,551
2023-03-13T00:38:03,42.805,6.029,CST-1368DR,4355,4712,11492,01.227,551
2023-03-13T00:41:05,42.805,6.029,CST-1368DR,4355,4715,11500,01.224,551
2023-03-13T00:44:07,42.805,6.029,CST-1368DR,4355,4715,11501,01.223,551
2023-03-13T00:47:08,42.805,6.029,CST-1368DR,4355,4711,11489,01.228,551
2023-03-13T00:50:10,42.805,6.029,CST-1368DR,4355,4714,11498,01.224,551
2023-03-13T00:53:11,42.805,6.029,CST-1368DR,4355,4721,11514,01.219,551
2023-03-13T00:56:13,42.805,6.029,CST-1368DR,4355,4714,11498,01.224,551
2023-03-13T00:59:14,42.805,6.029,CST-1368DR,4355,4713,11496,01.225,551
2023-03-13T01:02:16,42.805,6.029,CST-1368DR,4355,4716,11502,01.223,551
2023-03-13T01:05:18,42.805,6.029,CST-1368DR,4355,4712,11493,01.226,551
2023-03-13T01:08:19,42.805,6.029,CST-1368DR,4355,4713,11494,01.226,551
2023-03-13T01:11:21,42.805,6.029,CST-1368DR,4355,4712,11494,01.226,551
2023-03-13T01:14:22,42.805,6.029,CST-1368DR,4355,4713,11495,01.226,551
2023-03-13T01:17:24,42.805,6.029,CST-1368DR,4355,4713,11496,01.225,551
2023-03-13T01:20:25,42.805,6.029,CST-1368DR,4355,4712,11492,01.227,551
2023-03-13T01:23:27,42.805,6.029,CST-1368DR,4355,4711,11489,01.228,551
2023-03-13T01:26:29,42.805,6.029,CST-1368DR,4355,4717,11504,01.222,551
2023-03-13T01:29:30,42.805,6.029,CST-1368DR,4355,4713,11494,01.226,551
2023-03-13T01:32:32,42.805,6.029,CST-1368DR,4355,4712,11494,01.226,551
2023-03-13T01:35:33,42.805,6.029,CST-1368DR,4355,4715,11501,01.223,551
2023-03-13T01:38:35,42.805,6.029,CST-1368DR,4355,4713,11495,01.226,551
2023-03-13T01:41:37,42.805,6.029,CST-1368DR,4355,4717,11505,01.222,551
2023-03-13T01:44:38,42.805,6.029,CST-1368DR,4355,4715,11499,01.224,551
2023-03-13T01:47:40,42.805,6.029,CST-1368DR,4355,4708,11483,01.230,551
2023-03-13T01:50:41,42.805,6.029,CST-1368DR,4355,4708,11483,01.230,551
2023-03-13T01:53:43,42.805,6.029,CST-1368DR,4355,4712,11493,01.226,551
2023-03-13T01:56:44,42.805,6.029,CST-1368DR,4355,4712,11493,01.226,551
2023-03-13T01:59:46,42.805,6.029,CST-1368DR,4355,4710,11487,01.228,551
2023-03-13T02:02:48,42.805,6.029,CST-1368DR,4355,4710,11489,01.228,551
2023-03-13T02:05:49,42.805,6.029,CST-1368DR,4355,4709,11485,01.229,551
2023-03-13T02:08:51,42.805,6.029,CST-1368DR,4355,4709,11485,01.229,551
2023-03-13T02:11:52,42.805,6.029,CST-1368DR,4355,4706,11478,01.231,551
2023-03-13T02:14:54,42.805,6.029,CST-1368DR,4355,4710,11487,01.228,551
2023-03-13T02:17:55,42.805,6.029,CST-1368DR,4355,4711,11491,01.227,551
2023-03-13T02:20:57,42.805,6.029,CST-1368DR,4355,4712,11494,01.226,551
2023-03-13T02:23:59,42.805,6.029,CST-1368DR,4355,4714,11498,01.224,551
2023-03-13T02:27:00,42.805,6.029,CST-1368DR,4355,4709,11486,01.229,551
2023-03-13T02:30:02,42.805,6.029,CST-1368DR,4355,4709,11485,01.229,551
2023-03-13T02:33:03,42.805,6.029,CST-1368DR,4355,4713,11496,01.225,551
2023-03-13T02:36:05,42.805,6.029,CST-1368DR,4355,4714,11497,01.225,551
2023-03-13T02:39:07,42.805,6.029,CST-1368DR,4355,4710,11488,01.228,551
2023-03-13T02:42:08,42.805,6.029,CST-1368DR,4355,4712,11493,01.226,551
2023-03-13T02:45:10,42.805,6.029,CST-1368DR,4355,4712,11494,01.226,551
2023-03-13T02:48:11,42.805,6.029,CST-1368DR,4355,4709,11486,01.229,551
2023-03-13T02:51:13,42.805,6.029,CST-1368DR,4355,4705,11475,01.233,551
2023-03-13T02:54:14,42.805,6.029,CST-1368DR,4355,4712,11493,01.226,551
2023-03-13T02:57:16,42.805,6.029,CST-1368DR,4355,4712,11492,01.227,551
2023-03-13T03:00:18,42.805,6.029,CST-1368DR,4355,4711,11491,01.227,551
2023-03-13T03:03:19,42.805,6.029,CST-1368DR,4355,4713,11496,01.225,551
2023-03-13T03:06:21,42.805,6.029,CST-1368DR,4355,4712,11493,01.226,551
2023-03-13T03:09:22,42.805,6.029,CST-1368DR,4355,4710,11488,01.228,551
2023-03-13T03:12:24,42.805,6.029,CST-1368DR,4355,4708,11484,01.229,551
2023-03-13T03:15:25,42.805,6.029,CST-1368DR,4355,4715,11500,01.224,551
2023-03-13T03:18:27,42.805,6.029,CST-1368DR,4355,4715,11499,01.224,551
2023-03-13T03:21:29,42.805,6.029,CST-1368DR,4355,4714,11497,01.225,551
2023-03-13T03:24:30,42.805,6.029,CST-1368DR,4355,4712,11492,01.227,551
2023-03-13T03:27:32,42.805,6.029,CST-1368DR,4355,4714,11498,01.224,551
2023-03-13T03:30:33,42.805,6.029,CST-1368DR,4355,4713,11495,01.226,551
2023-03-13T03:33:35,42.805,6.029,CST-1368DR,4355,4717,11505,01.222,551
2023-03-13T03:36:37,42.805,6.029,CST-1368DR,4355,4710,11488,01.228,551
2023-03-13T03:39:38,42.805,6.029,CST-1368DR,4355,4716,11502,01.223,551
2023-03-13T03:42:40,42.805,6.029,CST-1368DR,4355,4715,11500,01.224,551
2023-03-13T03:45:41,42.805,6.029,CST-1368DR,4355,4722,11516,01.218,551
2023-03-13T03:48:43,42.805,6.029,CST-1368DR,4355,4720,11513,01.219,551
2023-03-13T03:51:44,42.805,6.029,CST-1368DR,4355,4718,11508,01.221,551
2023-03-13T03:54:46,42.805,6.029,CST-1368DR,4355,4717,11505,01.222,551
2023-03-13T03:57:48,42.805,6.029,CST-1368DR,4355,4715,11499,01.224,551
2023-03-13T04:00:49,42.805,6.029,CST-1368DR,4355,4713,11496,01.225,551
2023-03-13T04:03:51,42.805,6.029,CST-1368DR,4355,4716,11503,01.223,551
2023-03-13T04:06:52,42.805,6.029,CST-1368DR,4355,4712,11492,01.227,551
2023-03-13T04:09:54,42.805,6.029,CST-1368DR,4355,4713,11495,01.226,551
2023-03-13T04:12:55,42.805,6.029,CST-1368DR,4355,4710,11489,01.228,551
2023-03-13T04:15:57,42.805,6.029,CST-1368DR,4355,4713,11495,01.226,551
2023-03-13T04:18:59,42.805,6.029,CST-1368DR,4355,4714,11497,01.225,551
2023-03-13T04:22:00,42.805,6.029,CST-1368DR,4355,4711,11491,01.227,551
2023-03-13T04:25:02,42.805,6.029,CST-1368DR,4355,4710,11488,01.228,551
2023-03-13T04:28:03,42.805,6.029,CST-1368DR,4355,4711,11491,01.227,551
2023-03-13T04:31:05,42.805,6.029,CST-1368DR,4355,4712,11493,01.226,551
2023-03-13T04:34:07,42.805,6.029,CST-1368DR,4355,4714,11497,01.225,551
2023-03-13T04:37:08,42.805,6.029,CST-1368DR,4355,4715,11499,01.224,551
2023-03-13T04:40:10,42.805,6.029,CST-1368DR,4355,4713,11494,01.226,551
2023-03-13T04:43:11,42.805,6.029,CST-1368DR,4355,4711,11489,01.228,551
2023-03-13T04:46:13,42.805,6.029,CST-1368DR,4355,4710,11489,01.228,551
2023-03-13T04:49:14,42.805,6.029,CST-1368DR,4355,4708,11484,01.229,551
2023-03-13T04:52:16,42.805,6.029,CST-1368DR,4355,4711,11491,01.227,551
2023-03-13T04:55:18,42.805,6.029,CST-1368DR,4355,4712,11492,01.227,551
2023-03-13T04:58:19,42.805,6.029,CST-1368DR,4355,4708,11483,01.230,551
2023-03-13T05:01:21,42.805,6.029,CST-1368DR,4355,4712,11492,01.227,551
2023-03-13T05:04:22,42.805,6.029,CST-1368DR,4355,4711,11489,01.228,551
2023-03-13T05:07:24,42.805,6.029,CST-1368DR,4355,4707,11482,01.230,551
2023-03-13T05:10:25,42.805,6.029,CST-1368DR,4355,4709,11486,01.229,551
2023-03-13T05:13:27,42.805,6.029,CST-1368DR,4355,4709,11486,01.229,551
2023-03-13T05:16:29,42.805,6.029,CST-1368DR,4355,4715,11500,01.224,551
2023-03-13T05:19:30,42.805,6.029,CST-1368DR,4355,4713,11495,01.226,551
2023-03-13T05:22:32,42.805,6.029,CST-1368DR,4355,4709,11486,01.229,551
2023-03-13T05:25:33,42.805,6.029,CST-1368DR,4355,4715,11500,01.224,551
2023-03-13T05:28:35,42.805,6.029,CST-1368DR,4355,4714,11498,01.224,551
2023-03-13T05:31:36,42.805,6.029,CST-1368DR,4355,4713,11495,01.226,551
2023-03-13T05:34:38,42.805,6.029,CST-1368DR,4355,4712,11493,01.226,551
2023-03-13T05:37:40,42.805,6.029,CST-1368DR,4355,4710,11487,01.228,551
2023-03-13T05:40:41,42.805,6.029,CST-1368DR,4355,4716,11502,01.223,551
2023-03-13T05:43:43,42.805,6.029,CST-1368DR,4355,4711,11491,01.227,551
2023-03-13T05:46:44,42.805,6.029,CST-1368DR,4355,4717,11505,01.222,551
2023-03-13T05:49:46,42.805,6.029,CST-1368DR,4355,4712,11493,01.226,551
2023-03-13T05:52:48,42.805,6.029,CST-1368DR,4355,4712,11494,01.226,551
2023-03-13T05:55:49,42.805,6.029,CST-1368DR,4355,4708,11483,01.230,551
2023-03-13T05:58:51,42.805,6.029,CST-1368DR,4355,4713,11494,01.226,551
2023-03-13T06:01:52,42.805,6.029,CST-1368DR,4355,4712,11492,01.227,551
2023-03-13T06:04:54,42.805,6.029,CST-1368DR,4355,4709,11486,01.229,551
2023-03-13T06:07:55,42.805,6.029,CST-1368DR,4355,4714,11497,01.225,551
2023-03-13T06:10:57,42.805,6.029,CST-1368DR,4355,4716,11502,01.223,551
2023-03-13T06:13:59,42.805,6.029,CST-1368DR,4355,4708,11484,01.229,551
2023-03-13T06:17:00,42.805,6.029,CST-1368DR,4355,4713,11495,01.226,551
2023-03-13T06:20:02,42.805,6.029,CST-1368DR,4355,4712,11493,01.226,551
2023-03-13T06:23:03,42.805,6.029,CST-1368DR,4355,4711,11489,01.228,551
2023-03-13T06:26:05,42.805,6.029,CST-1368DR,4355,4700,11464,01.236,551
2023-03-13T06:29:06,42.805,6.029,CST-1368DR,4354,4707,11484,01.229,551
2023-03-13T06:32:08,42.805,6.029,CST-1368DR,4354,4706,11481,01.230,551
2023-03-13T06:35:10,42.805,6.029,CST-1368DR,4355,4711,11491,01.227,551
2023-03-13T06:38:11,42.805,6.029,CST-1368DR,4354,4709,11487,01.228,551
2023-03-13T06:41:13,42.805,6.029,CST-1368DR,4355,4710,11487,01.228,551
2023-03-13T06:44:14,42.805,6.029,CST-1368DR,4354,4709,11488,01.228,551
2023-03-13T06:47:16,42.805,6.029,CST-1368DR,4354,4705,11478,01.231,551
2023-03-13T06:50:18,42.805,6.029,CST-1368DR,4354,4710,11491,01.227,551
2023-03-13T06:53:19,42.805,6.029,CST-1368DR,4355,4709,11486,01.229,551
2023-03-13T06:56:21,42.805,6.029,CST-1368DR,4355,4712,11493,01.226,551
2023-03-13T06:59:22,42.805,6.029,CST-1368DR,4355,4708,11484,01.229,551
2023-03-13T07:02:24,42.805,6.029,CST-1368DR,4355,4705,11476,01.232,551
2023-03-13T07:05:25,42.805,6.029,CST-1368DR,4354,4703,11474,01.233,551
2023-03-13T07:08:27,42.805,6.029,CST-1368DR,4355,4707,11481,01.230,551
2023-03-13T07:11:29,42.805,6.029,CST-1368DR,4354,4707,11482,01.230,551
2023-03-13T07:14:30,42.805,6.029,CST-1368DR,4354,4705,11478,01.231,551
2023-03-13T07:17:32,42.805,6.029,CST-1368DR,4354,4709,11487,01.228,551
2023-03-13T07:20:33,42.805,6.029,CST-1368DR,4354,4710,11491,01.227,551
2023-03-13T07:23:35,42.805,6.029,CST-1368DR,4354,4708,11486,01.229,551
2023-03-13T07:26:36,42.805,6.029,CST-1368DR,4354,4702,11471,01.234,551
2023-03-13T07:29:38,42.805,6.029,CST-1368DR,4354,4707,11483,01.230,551
2023-03-13T07:32:40,42.805,6.029,CST-1368DR,4354,4706,11480,01.231,551
2023-03-13T07:35:41,42.805,6.029,CST-1368DR,4354,4712,11494,01.226,551
2023-03-13T07:38:43,42.805,6.029,CST-1368DR,4354,4706,11482,01.230,551
2023-03-13T07:41:44,42.805,6.029,CST-1368DR,4355,4713,11494,01.226,551
2023-03-13T07:44:46,42.805,6.029,CST-1368DR,4354,4712,11496,01.225,551
2023-03-13T07:47:48,42.805,6.029,CST-1368DR,4354,4708,11485,01.229,551
2023-03-13T07:50:49,42.805,6.029,CST-1368DR,4354,4709,11487,01.228,551
2023-03-13T07:53:51,42.805,6.029,CST-1368DR,4354,4706,11482,01.230,551
2023-03-13T07:56:52,42.805,6.029,CST-1368DR,4355,4709,11486,01.229,551
2023-03-13T07:59:54,42.805,6.029,CST-1368DR,4354,4709,11488,01.228,551
2023-03-13T08:02:55,42.805,6.029,CST-1368DR,4354,4706,11480,01.231,551
2023-03-13T08:05:57,42.805,6.029,CST-1368DR,4354,4709,11487,01.228,551
2023-03-13T08:08:59,42.805,6.029,CST-1368DR,4354,4704,11476,01.232,551
2023-03-13T08:12:00,42.805,6.029,CST-1368DR,4354,4702,11471,01.234,551
2023-03-13T08:15:02,42.805,6.029,CST-1368DR,4354,4700,11467,01.235,551
2023-03-13T08:18:03,42.805,6.029,CST-1368DR,4355,4712,11493,01.226,551
2023-03-13T08:21:05,42.805,6.029,CST-1368DR,4354,4712,11494,01.226,551
2023-03-13T08:24:06,42.805,6.029,CST-1368DR,4354,4702,11470,01.234,551
2023-03-13T08:27:08,42.805,6.029,CST-1368DR,4355,4701,11467,01.235,551
2023-03-13T08:30:10,42.805,6.029,CST-1368DR,4354,4709,11488,01.228,551
2023-03-13T08:33:11,42.805,6.029,CST-1368DR,4354,4700,11465,01.236,551
2023-03-13T08:36:13,42.805,6.029,CST-1368DR,4354,4701,11469,01.235,551
2023-03-13T08:39:14,42.805,6.029,CST-1368DR,4354,4703,11474,01.233,551
2023-03-13T08:42:16,42.805,6.029,CST-1368DR,4354,4703,11474,01.233,551
2023-03-13T08:45:18,42.805,6.029,CST-1368DR,4354,4703,11473,01.233,551
2023-03-13T08:48:19,42.805,6.029,CST-1368DR,4354,4702,11471,01.234,551
2023-03-13T08:51:21,42.805,6.029,CST-1368DR,4354,4704,11476,01.232,551
2023-03-13T08:54:22,42.805,6.029,CST-1368DR,4354,4701,11469,01.235,551
2023-03-13T08:57:24,42.805,6.029,CST-1368DR,4354,4705,11477,01.232,551
2023-03-13T09:00:25,42.805,6.029,CST-1368DR,4354,4705,11479,01.231,551
2023-03-13T09:03:27,42.805,6.029,CST-1368DR,4354,4702,11470,01.234,551
2023-03-13T09:06:29,42.805,6.029,CST-1368DR,4354,4703,11474,01.233,551
2023-03-13T09:09:30,42.805,6.029,CST-1368DR,4354,4699,11463,01.237,551
2023-03-13T09:12:32,42.805,6.029,CST-1368DR,4354,4698,11462,01.237,551
2023-03-13T09:15:33,42.805,6.029,CST-1368DR,4354,4702,11472,01.234,551
2023-03-13T09:18:35,42.805,6.029,CST-1368DR,4354,4704,11475,01.233,551
2023-03-13T09:21:36,42.805,6.029,CST-1368DR,4354,4696,11456,01.239,551
2023-03-13T09:24:38,42.805,6.029,CST-1368DR,4354,4702,11470,01.234,551
2023-03-13T09:27:40,42.805,6.029,CST-1368DR,4354,4702,11472,01.234,551
2023-03-13T09:30:41,42.805,6.029,CST-1368DR,4354,4702,11471,01.234,551
2023-03-13T09:33:43,42.805,6.029,CST-1368DR,4354,4700,11467,01.235,551
2023-03-13T09:36:44,42.805,6.029,CST-1368DR,4354,4699,11463,01.237,551
2023-03-13T09:39:46,42.805,6.029,CST-1368DR,4354,4699,11463,01.237,551
2023-03-13T09:42:48,42.805,6.029,CST-1368DR,4354,4699,11463,01.237,551
2023-03-13T09:45:49,42.805,6.029,CST-1368DR,4354,4703,11474,01.233,551
2023-03-13T09:48:51,42.805,6.029,CST-1368DR,4354,4700,11467,01.235,551
2023-03-13T09:51:52,42.805,6.029,CST-1368DR,4354,4699,11464,01.236,551
2023-03-13T09:54:54,42.805,6.029,CST-1368DR,4354,4698,11461,01.237,551
2023-03-13T09:57:55,42.805,6.029,CST-1368DR,4354,4697,11458,01.238,551
2023-03-13T10:00:57,42.805,6.029,CST-1368DR,4354,4700,11467,01.235,551
2023-03-13T10:03:59,42.805,6.029,CST-1368DR,4354,4696,11457,01.239,551
2023-03-13T10:07:00,42.805,6.029,CST-1368DR,4354,4698,11461,01.237,551
2023-03-13T10:10:02,42.805,6.029,CST-1368DR,4354,4695,11455,01.239,551
2023-03-13T10:13:03,42.805,6.029,CST-1368DR,4354,4699,11463,01.237,551
2023-03-13T10:16:05,42.805,6.029,CST-1368DR,4354,4697,11458,01.238,551
2023-03-13T10:19:06,42.805,6.029,CST-1368DR,4354,4704,11477,01.232,551
2023-03-13T10:22:08,42.805,6.029,CST-1368DR,4354,4703,11473,01.233,551
2023-03-13T10:25:10,42.805,6.029,CST-1368DR,4354,4700,11465,01.236,551
2023-03-13T10:28:11,42.805,6.029,CST-1368DR,4354,4702,11471,01.234,551
2023-03-13T10:31:13,42.805,6.029,CST-1368DR,4354,4700,11466,01.236,551
2023-03-13T10:34:14,42.805,6.029,CST-1368DR,4354,4706,11481,01.230,551
2023-03-13T10:37:16,42.805,6.029,CST-1368DR,4354,4706,11481,01.230,551
2023-03-13T10:40:18,42.805,6.029,CST-1368DR,4354,4706,11482,01.230,551
2023-03-13T10:43:19,42.805,6.029,CST-1368DR,4354,4704,11476,01.232,551
2023-03-13T10:46:21,42.805,6.029,CST-1368DR,4354,4703,11474,01.233,551
2023-03-13T10:49:22,42.805,6.029,CST-1368DR,4354,4706,11482,01.230,551
2023-03-13T10:52:24,42.805,6.029,CST-1368DR,4354,4702,11470,01.234,551
2023-03-13T10:55:25,42.805,6.029,CST-1368DR,4354,4706,11480,01.231,551
2023-03-13T10:58:27,42.805,6.029,CST-1368DR,4354,4706,11482,01.230,551
2023-03-13T11:01:29,42.805,6.029,CST-1368DR,4354,4701,11468,01.235,551
2023-03-13T11:04:30,42.805,6.029,CST-1368DR,4354,4710,11490,01.227,551
2023-03-13T11:07:32,42.805,6.029,CST-1368DR,4354,4704,11477,01.232,551
2023-03-13T11:10:33,42.805,6.029,CST-1368DR,4354,4695,11455,01.239,551
2023-03-13T11:13:35,42.805,6.029,CST-1368DR,4354,4701,11469,01.235,551
2023-03-13T11:16:36,42.805,6.029,CST-1368DR,4354,4697,11458,01.238,551
2023-03-13T11:19:38,42.805,6.029,CST-1368DR,4354,4701,11469,01.235,551
2023-03-13T11:22:40,42.805,6.029,CST-1368DR,4354,4700,11467,01.235,551
2023-03-13T11:25:41,42.805,6.029,CST-1368DR,4354,4702,11471,01.234,551
2023-03-13T11:28:43,42.805,6.029,CST-1368DR,4354,4701,11469,01.235,551
2023-03-13T11:31:44,42.805,6.029,CST-1368DR,4354,4706,11480,01.231,551
2023-03-13T11:34:46,42.805,6.029,CST-1368DR,4354,4701,11469,01.235,551
2023-03-13T11:37:48,42.805,6.029,CST-1368DR,4354,4700,11467,01.235,551
2023-03-13T11:40:49,42.805,6.029,CST-1368DR,4354,4703,11473,01.233,551
2023-03-13T11:43:51,42.805,6.029,CST-1368DR,4354,4703,11474,01.233,551
2023-03-13T11:46:52,42.805,6.029,CST-1368DR,4354,4706,11480,01.231,551
2023-03-13T11:49:54,42.805,6.029,CST-1368DR,4354,4702,11471,01.234,551
2023-03-13T11:52:55,42.805,6.029,CST-1368DR,4354,4699,11463,01.237,551
2023-03-13T11:55:57,42.805,6.029,CST-1368DR,4354,4701,11469,01.235,551
2023-03-13T11:58:59,42.805,6.029,CST-1368DR,4354,4710,11491,01.227,551
2023-03-13T12:02:00,42.805,6.029,CST-1368DR,4354,4700,11466,01.236,551
2023-03-13T12:05:02,42.805,6.029,CST-1368DR,4354,4703,11472,01.234,551
2023-03-13T12:08:03,42.805,6.029,CST-1368DR,4354,4703,11473,01.233,551
2023-03-13T12:11:05,42.805,6.029,CST-1368DR,4354,4704,11475,01.233,551
2023-03-13T12:14:06,42.805,6.029,CST-1368DR,4354,4698,11461,01.237,551
2023-03-13T12:17:08,42.805,6.029,CST-1368DR,4354,4708,11486,01.229,551
2023-03-13T12:20:10,42.805,6.029,CST-1368DR,4354,4705,11479,01.231,551
2023-03-13T12:23:11,42.805,6.029,CST-1368DR,4354,4712,11495,01.226,551
2023-03-13T12:26:13,42.805,6.029,CST-1368DR,4354,4702,11471,01.234,551
2023-03-13T12:29:14,42.805,6.029,CST-1368DR,4354,4705,11477,01.232,551
2023-03-13T12:32:16,42.805,6.029,CST-1368DR,4354,4702,11470,01.234,551
2023-03-13T12:35:17,42.805,6.029,CST-1368DR,4354,4701,11469,01.235,551
2023-03-13T12:38:19,42.805,6.029,CST-1368DR,4354,4702,11470,01.234,551
2023-03-13T12:41:21,42.805,6.029,CST-1368DR,4354,4705,11477,01.232,551
2023-03-13T12:44:22,42.805,6.029,CST-1368DR,4354,4705,11479,01.231,551
2023-03-13T12:47:24,42.805,6.029,CST-1368DR,4354,4702,11472,01.234,551
2023-03-13T12:50:25,42.805,6.029,CST-1368DR,4354,4704,11476,01.232,551
2023-03-13T12:53:27,42.805,6.029,CST-1368DR,4354,4708,11486,01.229,551
2023-03-13T12:56:29,42.805,6.029,CST-1368DR,4354,4706,11482,01.230,551
2023-03-13T12:59:30,42.805,6.029,CST-1368DR,4354,4704,11477,01.232,551
2023-03-13T13:02:32,42.805,6.029,CST-1368DR,4354,4701,11468,01.235,551
2023-03-13T13:05:33,42.805,6.029,CST-1368DR,4354,4707,11483,01.230,551
2023-03-13T13:08:35,42.805,6.029,CST-1368DR,4354,4702,11472,01.234,551
2023-03-13T13:11:36,42.805,6.029,CST-1368DR,4354,4704,11477,01.232,551
2023-03-13T13:14:38,42.805,6.029,CST-1368DR,4354,4705,11479,01.231,551
2023-03-13T13:17:40,42.805,6.029,CST-1368DR,4354,4705,11477,01.232,551
2023-03-13T13:20:41,42.805,6.029,CST-1368DR,4354,4702,11472,01.234,551
2023-03-13T13:23:43,42.805,6.029,CST-1368DR,4354,4703,11474,01.233,551
2023-03-13T13:26:44,42.805,6.029,CST-1368DR,4354,4705,11478,01.231,551
2023-03-13T13:29:46,42.805,6.029,CST-1368DR,4354,4704,11475,01.233,551
2023-03-13T13:32:47,42.805,6.029,CST-1368DR,4354,4705,11479,01.231,551
2023-03-13T13:35:49,42.805,6.029,CST-1368DR,4354,4704,11475,01.233,551
2023-03-13T13:38:51,42.805,6.029,CST-1368DR,4354,4699,11464,01.236,551
2023-03-13T13:41:52,42.805,6.029,CST-1368DR,4354,4704,11476,01.232,551
2023-03-13T13:44:54,42.805,6.029,CST-1368DR,4354,4704,11475,01.233,551
2023-03-13T13:47:55,42.805,6.029,CST-1368DR,4354,4703,11474,01.233,551
2023-03-13T13:50:57,42.805,6.029,CST-1368DR,4354,4706,11480,01.231,551
2023-03-13T13:53:59,42.805,6.029,CST-1368DR,4354,4705,11479,01.231,551
2023-03-13T13:57:00,42.805,6.029,CST-1368DR,4354,4704,11476,01.232,551
2023-03-13T14:00:02,42.805,6.029,CST-1368DR,4354,4704,11476,01.232,551
2023-03-13T14:03:03,42.805,6.029,CST-1368DR,4354,4706,11480,01.231,551
2023-03-13T14:06:05,42.805,6.029,CST-1368DR,4354,4705,11477,01.232,551
2023-03-13T14:09:06,42.805,6.029,CST-1368DR,4354,4686,11433,01.247,551
2023-03-13T14:12:08,42.805,6.029,CST-1368DR,4354,4704,11476,01.232,551
2023-03-13T14:15:10,42.805,6.029,CST-1368DR,4354,4703,11473,01.233,551
2023-03-13T14:18:11,42.805,6.029,CST-1368DR,4354,4702,11472,01.234,551
2023-03-13T14:21:13,42.805,6.029,CST-1368DR,4354,4706,11480,01.231,551
2023-03-13T14:24:14,42.805,6.029,CST-1368DR,4354,4705,11479,01.231,551
2023-03-13T14:27:16,42.805,6.029,CST-1368DR,4354,4710,11490,01.227,551
2023-03-13T14:30:17,42.805,6.029,CST-1368DR,4354,4701,11469,01.235,551
2023-03-13T14:33:19,42.805,6.029,CST-1368DR,4354,4702,11470,01.234,551
2023-03-13T14:36:21,42.805,6.029,CST-1368DR,4354,4700,11465,01.236,551
2023-03-13T14:39:22,42.805,6.029,CST-1368DR,4354,4703,11473,01.233,551
2023-03-13T14:42:24,42.805,6.029,CST-1368DR,4354,4700,11466,01.236,551
2023-03-13T14:45:25,42.805,6.029,CST-1368DR,4354,4705,11477,01.232,551
2023-03-13T14:48:27,42.805,6.029,CST-1368DR,4354,4703,11474,01.233,551
2023-03-13T14:51:29,42.805,6.029,CST-1368DR,4354,4701,11469,01.235,551
2023-03-13T14:54:30,42.805,6.029,CST-1368DR,4354,4704,11477,01.232,551
2023-03-13T14:57:32,42.805,6.029,CST-1368DR,4354,4703,11472,01.234,551
2023-03-13T15:00:33,42.805,6.029,CST-1368DR,4354,4700,11467,01.235,551
2023-03-13T15:03:35,42.805,6.029,CST-1368DR,4354,4702,11471,01.234,551
2023-03-13T15:06:36,42.805,6.029,CST-1368DR,4354,4695,11454,01.240,551
2023-03-13T15:09:38,42.805,6.029,CST-1368DR,4354,4702,11471,01.234,551
2023-03-13T15:12:40,42.805,6.029,CST-1368DR,4354,4701,11469,01.235,551
2023-03-13T15:15:41,42.805,6.029,CST-1368DR,4354,4703,11473,01.233,551
2023-03-13T15:18:43,42.805,6.029,CST-1368DR,4354,4711,11492,01.227,551
2023-03-13T15:21:44,42.805,6.029,CST-1368DR,4354,4706,11480,01.231,551
2023-03-13T15:24:46,42.805,6.029,CST-1368DR,4354,4703,11472,01.234,551
2023-03-13T15:27:48,42.805,6.029,CST-1368DR,4354,4709,11487,01.228,551
2023-03-13T15:30:49,42.805,6.029,CST-1368DR,4354,4705,11479,01.231,551
2023-03-13T15:33:51,42.805,6.029,CST-1368DR,4354,4704,11475,01.233,551
2023-03-13T15:36:52,42.805,6.029,CST-1368DR,4354,4702,11472,01.234,551
2023-03-13T15:39:54,42.805,6.029,CST-1368DR,4354,4709,11487,01.228,551
2023-03-13T15:42:55,42.805,6.029,CST-1368DR,4354,4707,11482,01.230,551
2023-03-13T15:45:57,42.805,6.029,CST-1368DR,4354,4706,11480,01.231,551
2023-03-13T15:48:59,42.805,6.029,CST-1368DR,4354,4704,11475,01.233,551
2023-03-13T15:52:00,42.805,6.029,CST-1368DR,4354,4703,11474,01.233,551
2023-03-13T15:55:02,42.805,6.029,CST-1368DR,4354,4704,11475,01.233,551
2023-03-13T15:58:03,42.805,6.029,CST-1368DR,4354,4709,11487,01.228,551
2023-03-13T16:01:05,42.805,6.029,CST-1368DR,4354,4708,11486,01.229,551
2023-03-13T16:04:06,42.805,6.029,CST-1368DR,4354,4703,11474,01.233,551
2023-03-13T16:07:08,42.805,6.029,CST-1368DR,4354,4700,11467,01.235,551
2023-03-13T16:10:10,42.805,6.029,CST-1368DR,4354,4703,11474,01.233,551
2023-03-13T16:13:11,42.805,6.029,CST-1368DR,4354,4699,11463,01.237,551
2023-03-13T16:16:13,42.805,6.029,CST-1368DR,4354,4703,11474,01.233,551
2023-03-13T16:19:14,42.805,6.029,CST-1368DR,4354,4703,11472,01.234,551
2023-03-13T16:22:16,42.805,6.029,CST-1368DR,4354,4702,11472,01.234,551
2023-03-13T16:25:17,42.805,6.029,CST-1368DR,4354,4700,11466,01.236,551
2023-03-13T16:28:19,42.805,6.029,CST-1368DR,4354,4701,11469,01.235,551
2023-03-13T16:31:21,42.805,6.029,CST-1368DR,4354,4703,11474,01.233,551
2023-03-13T16:34:22,42.805,6.029,CST-1368DR,4354,4702,11472,01.234,551
2023-03-13T16:37:24,42.805,6.029,CST-1368DR,4354,4702,11471,01.234,551